Vorticity
3 3 4 4 3 3 3 3 3 3 3 3 3 3 3 3 2 2 2 2 2 2 2 2 2 2 2 2 2 3 4 5 5 5 5 4 4 4 3 3 3 3 2 1 1 1 0 0 0 1 1 1 2 2 2 2 3 3 4 4 4 4 4 3 1 2 5 8 10 11 11 9 5 3 2 2 1 1 3 5 6 5 5 6 7 6 7 6
4 4 4 4 3 3 2 3 3 3 3 3 3 3 3 3 2 2 2 2 2 2 2 2 2 2 2 2 2 2 3 4 5 5 5 4 3 3 3 2 2 2 1 0 0 1 1 1 1 1 1 2 2 2 3 3 3 4 4 4 5 5 4 2 2 5 8 10 11 11 10 9 5 4 3 1 1 1 2 5 6 5 5 7 7 7 7 7
4 4 4 4 3 2 2 3 3 3 3 3 3 2 2 2 2 2 2 2 2 2 2 2 2 2 2 1 1 2 3 4 4 5 5 5 4 4 3 3 2 2 2 1 1 2 2 2 2 2 2 2 3 3 4 4 4 4 4 5 4 3 2 2 5 8 10 12 12 11 9 7 5 5 3 2 1 1 3 6 6 5 7 8 8 8 7 7
4 4 4 4 3 2 2 2 3 2 2 2 2 2 2 2 2 2 1 1 2 1 2 2 2 2 1 1 1 1 2 3 4 5 5 5 5 5 5 4 4 3 3 3 3 3 3 3 3 4 4 4 4 4 5 4 5 5 4 4 4 4 5 7 10 10 11 12 11 9 7 6 5 5 4 3 2 2 3 5 5 6 8 9 8 7 6 7
4 4 4 4 3 2 2 2 2 2 2 2 2 2 2 2 2 2 2 2 2 2 2 2 2 2 1 1 1 1 2 3 4 6 6 6 6 5 5 5 5 5 5 4 5 4 4 5 5 5 5 5 5 5 5 5 5 5 5 5 6 8 9 11 11 11 11 11 10 8 6 5 5 5 4 3 3 3 4 5 5 7 8 8 8 7 7 7
3 3 4 4 3 3 3 3 2 2 3 2 2 2 2 2 2 2 2 2 2 2 2 2 2 2 1 1 0 1 1 2 4 6 7 7 7 7 7 6 6 6 6 5 5 5 5 6 5 5 5 4 4 5 5 6 7 7 8 9 9 10 10 10 10 10 10 9 8 7 5 5 5 4 3 2 3 4 5 5 6 8 8 8 7 7 7 7
3 3 3 3 4 3 3 3 3 3 3 3 2 2 2 2 2 2 2 2 2 2 2 2 2 1 1 1 1 1 1 2 3 5 7 8 8 7 7 7 6 6 6 5 5 5 5 5 4 3 3 4 6 8 9 10 11 11 11 10 10 9 9 9 9 8 8 7 7 5 4 3 3 3 3 3 5 6 6 6 7 9 8 8 8 8 7 7
2 2 3 3 3 3 3 3 3 3 3 3 3 2 3 2 2 2 2 2 2 2 2 2 2 2 1 1 1 1 1 2 4 5 6 8 7 6 6 6 6 5 5 5 5 5 4 3 2 2 4 7 9 10 10 10 9 9 8 7 7 7 8 8 7 7 7 6 4 3 2 2 2 3 3 4 5 6 6 7 8 8 7 7 7 8 8 8
3 2 3 3 3 3 3 3 2 3 3 3 3 3 3 3 3 2 2 2 2 2 2 2 2 1 1 1 0 1 1 2 3 5 7 8 7 6 6 5 5 5 5 5 4 3 2 1 2 3 5 7 8 8 6 6 5 4 3 3 3 4 6 6 6 6 5 3 2 2 2 2 4 4 5 5 5 6 6 7 8 6 5 5 6 7 8 9
3 4 3 3 3 3 3 3 3 2 2 3 3 3 2 2 3 2 2 1 1 2 2 2 2 1 1 1 0 0 1 2 4 6 7 8 7 6 5 5 5 5 4 3 3 2 1 1 2 3 7 7 7 6 5 4 3 3 4 4 5 5 5 6 5 5 4 3 3 3 3 4 4 5 5 5 6 7 7 9 8 5 4 6 8 8 8 7
4 4 4 4 3 3 3 3 3 2 2 2 2 2 3 2 2 2 2 2 1 2 2 2 2 2 1 0 -0 1 1 2 4 6 8 8 7 6 6 5 4 4 3 2 2 2 1 2 3 6 8 8 7 6 6 6 6 7 7 8 9 9 8 7 6 6 5 5 5 4 4 5 5 5 5 6 8 8 9 10 8 4 3 5 7 8 8 8
5 4 4 4 3 3 3 3 3 3 2 2 3 3 3 2 2 2 2 2 2 2 2 2 2 2 1 0 0 0 2 3 4 6 9 8 8 7 5 5 4 3 2 2 1 1 2 3 5 8 9 8 8 7 6 7 8 9 10 10 10 9 9 8 7 7 6 6 5 5 5 5 5 6 6 8 9 9 10 10 7 3 -0 1 5 8 9 10
5 5 4 4 3 3 3 3 3 3 3 2 2 3 3 3 2 2 2 2 2 2 2 2 2 2 0 -0 1 1 2 3 4 7 9 8 7 6 5 4 3 2 1 1 1 2 3 5 7 9 9 9 7 6 7 8 9 9 9 9 8 7 7 6 6 6 6 6 6 5 5 7 7 7 7 7 8 9 9 9 7 3 -2 -1 3 7 9 10
4 5 5 4 4 4 3 3 3 3 3 3 3 3 3 3 3 2 2 2 2 2 2 2 2 1 -0 -1 1 2 2 3 5 7 9 8 7 5 4 3 2 1 1 1 2 3 5 6 9 10 9 7 6 6 7 8 9 9 8 8 6 6 6 6 6 6 6 6 7 7 7 8 8 7 7 6 7 7 8 8 7 4 1 1 3 6 8 10
4 4 4 5 4 4 4 3 4 3 3 3 3 3 3 3 3 3 3 2 3 2 2 2 1 1 -0 -0 1 2 3 3 5 7 8 7 6 5 3 2 1 1 1 2 3 4 6 8 9 9 8 6 6 7 7 8 9 9 8 7 6 6 7 7 7 7 7 7 7 8 8 8 8 7 6 6 6 6 7 6 6 5 5 4 4 6 9 10
6 5 4 4 4 4 4 3 4 4 4 4 3 3 3 3 3 3 3 3 2 2 3 2 2 1 -0 -1 1 3 4 4 5 8 9 7 5 3 2 1 1 1 2 3 4 5 7 9 9 8 7 6 6 7 8 9 8 7 7 6 6 7 8 8 8 8 7 7 7 7 7 7 6 6 5 6 6 6 6 5 5 5 6 6 5 6 8 9
5 6 6 5 4 4 3 3 4 3 3 3 3 3 3 3 3 3 3 3 3 3 2 1 1 1 0 1 2 3 3 5 7 9 8 6 4 2 1 1 1 2 3 4 6 8 8 8 8 7 6 6 7 8 9 8 7 7 6 5 6 7 8 9 8 7 6 6 6 6 7 7 6 6 6 6 6 6 6 6 5 6 7 6 5 6 7 8
4 4 5 5 5 6 5 4 3 3 3 3 3 4 3 3 3 3 3 3 3 2 2 2 1 1 2 2 3 4 5 7 8 7 6 4 3 2 2 2 3 4 5 6 7 8 8 7 7 6 6 8 9 8 7 6 6 6 4 4 6 8 8 9 8 7 6 5 5 6 6 7 6 6 6 5 5 6 7 6 6 7 7 7 5 6 7 7
7 6 4 4 4 4 6 7 5 4 4 4 3 4 3 3 2 2 3 3 3 3 3 2 2 3 4 4 4 5 6 6 5 4 4 3 3 3 3 4 5 5 5 6 7 7 7 7 6 6 8 9 8 7 6 6 6 4 4 5 7 8 9 9 8 6 5 4 4 5 6 7 7 6 5 5 5 7 7 6 6 7 7 6 5 6 7 7
5 7 7 6 4 4 4 5 6 6 6 5 5 4 4 4 4 3 3 3 3 3 3 4 4 4 4 5 6 5 4 4 4 4 4 4 5 4 4 5 5 5 5 5 6 6 6 6 7 8 9 9 8 7 7 7 5 4 4 6 7 7 8 8 7 5 5 4 3 4 6 7 9 8 6 6 7 7 6 6 6 6 6 6 6 7 8 7
4 4 6 7 7 6 5 5 4 5 5 6 5 5 6 6 6 5 5 5 5 5 5 5 4 4 5 5 4 3 3 2 3 4 4 4 4 4 4 5 4 4 5 5 5 6 6 6 7 8 8 8 8 8 8 6 4 4 4 6 6 6 6 6 6 5 5 5 3 5 7 8 10 10 8 7 6 6 6 6 6 6 7 7 7 8 8 7
7 5 5 5 6 6 7 7 6 5 4 5 5 5 6 6 7 6 5 5 4 5 5 4 4 4 3 3 3 4 3 4 6 5 4 5 5 5 5 5 5 5 4 4 5 5 6 6 6 7 8 9 10 8 6 4 3 4 5 6 6 6 6 6 6 5 6 5 5 6 8 10 11 9 8 7 5 5 4 4 6 8 8 9 8 9 9 8
3 5 6 5 5 5 6 6 6 6 6 6 6 6 5 4 5 5 4 4 3 3 3 3 3 3 3 4 5 6 6 7 9 7 6 8 8 7 7 7 7 6 5 6 6 5 6 7 7 9 12 11 9 6 3 3 4 6 6 7 7 7 8 6 5 5 6 6 6 8 9 10 11 10 7 6 5 4 5 7 8 10 10 11 10 9 9 8
3 1 3 6 6 4 5 5 4 5 7 8 8 7 6 6 6 6 6 6 4 3 5 6 5 5 6 8 7 7 9 9 9 9 10 10 9 8 7 8 7 6 8 8 7 7 7 8 10 12 12 9 6 3 3 4 6 7 8 8 8 8 8 7 7 6 7 8 7 8 10 8 9 10 7 5 5 5 7 10 12 12 12 11 11 10 9 8
17 8 1 1 3 5 5 3 4 6 6 7 8 7 7 7 8 8 8 10 10 6 6 9 9 9 8 8 8 9 9 9 9 10 10 9 8 9 9 9 8 10 11 10 9 9 9 11 13 13 10 6 4 3 5 8 8 8 8 8 7 7 7 7 7 7 8 8 5 7 10 8 6 7 7 5 5 5 7 9 11 13 12 11 12 11 9 7
17 20 15 7 1 1 1 3 6 7 6 7 7 6 7 7 7 7 7 10 11 8 6 7 6 6 8 8 8 9 8 7 10 10 10 11 10 10 10 10 11 12 13 13 12 12 14 14 12 8 5 4 4 7 10 10 8 7 8 8 7 6 7 6 6 7 7 6 5 5 7 8 6 6 8 7 7 8 9 11 13 14 13 10 9 9 8 6
6 12 18 19 13 4 0 3 4 4 6 8 6 6 7 7 7 8 9 11 11 10 10 9 8 6 6 6 6 6 6 7 11 11 11 12 12 11 11 11 13 14 14 13 11 12 13 11 7 5 5 6 9 12 11 7 6 7 6 6 6 5 5 5 4 5 4 4 4 2 4 10 8 6 9 10 9 11 12 14 16 15 13 11 9 8 7 5
8 6 6 12 17 17 12 5 1 3 5 5 5 6 5 6 7 6 7 8 8 9 10 10 11 10 9 9 9 7 7 8 9 9 11 11 10 10 10 11 12 11 10 9 8 9 8 4 4 5 6 8 10 9 6 5 6 5 4 4 4 5 5 4 4 4 4 5 5 2 3 8 6 4 8 10 11 14 14 13 13 11 10 10 9 8 7 6
9 8 7 4 6 13 17 13 10 6 3 4 5 6 5 4 5 6 6 5 4 5 7 8 8 10 9 9 10 11 11 11 9 8 9 8 8 8 8 9 8 6 5 5 4 4 3 4 6 6 7 8 7 5 5 5 5 4 4 4 5 6 7 7 6 4 6 8 6 3 3 6 5 4 10 15 17 17 15 13 11 9 8 7 7 7 7 7
8 8 10 8 6 6 8 14 18 12 5 5 6 6 5 3 4 5 1 -1 2 4 3 4 5 6 7 7 7 8 9 9 8 8 7 7 8 7 6 5 4 4 5 5 5 6 7 7 7 7 7 6 4 5 5 4 5 5 5 5 6 8 7 8 8 6 9 9 3 2 6 6 5 7 12 16 15 12 10 9 8 7 7 7 7 8 8 9
10 13 10 5 6 8 7 9 16 16 7 3 5 5 3 4 5 -0 -5 -1 4 4 2 3 4 3 3 5 4 4 5 5 5 6 6 7 7 7 9 9 7 8 6 6 7 8 8 8 8 7 5 4 4 4 5 5 6 7 7 7 7 8 7 7 7 6 9 8 4 5 8 7 8 10 11 10 8 8 7 7 7 8 9 8 8 8 8 7
6 15 15 7 3 5 9 12 14 13 5 3 4 2 4 6 -2 -12 -8 5 6 2 4 4 3 5 5 5 6 6 7 7 7 8 7 7 6 5 7 8 8 8 6 8 10 8 8 8 7 6 4 5 6 5 6 6 6 6 6 6 5 6 6 6 7 8 9 10 9 11 11 10 12 12 11 7 5 6 6 6 7 8 10 10 9 8 6 5
2 7 14 15 12 7 7 12 14 8 5 7 2 1 7 -1 -8 2 9 6 2 1 3 3 1 3 2 2 4 5 7 8 7 8 8 7 7 7 6 7 9 9 8 10 10 8 7 6 5 6 6 6 6 5 5 5 4 2 2 5 6 6 7 7 10 11 11 12 12 12 11 10 12 11 8 7 6 4 4 5 6 8 10 9 7 6 6 6
6 6 5 6 12 15 13 12 12 9 8 9 3 3 3 -16 -16 13 18 5 5 4 1 2 -0 -0 2 3 5 6 7 7 6 6 7 6 8 10 10 10 10 11 11 11 9 7 7 5 5 6 5 4 4 4 4 4 4 2 3 4 4 8 12 11 11 10 10 12 11 11 9 9 11 8 5 7 6 3 4 5 7 9 9 6 5 5 5 5
16 13 9 6 5 13 18 13 10 12 9 7 7 2 -7 -15 -6 12 11 6 9 7 3 5 5 7 10 9 8 8 8 10 11 12 11 9 8 7 5 3 4 5 5 6 6 5 5 5 4 4 4 4 3 3 4 5 7 8 7 5 8 16 17 12 10 10 11 11 11 12 12 10 10 7 5 6 4 3 6 8 9 10 7 4 3 1 -1 1
17 12 7 9 11 16 20 16 11 11 10 9 8 0 -8 -5 4 10 11 10 9 6 6 6 6 7 6 2 1 2 4 7 9 11 11 10 8 4 -0 0 4 5 5 7 7 4 4 4 2 3 5 4 4 5 6 8 10 12 11 11 15 15 11 10 11 12 12 10 10 14 14 11 9 6 5 3 0 4 8 9 12 11 6 2 -0 -1 -1 -0
16 20 11 3 7 13 12 13 13 8 9 12 3 -8 -6 1 5 8 10 9 9 8 6 4 4 3 0 1 3 4 6 5 5 7 5 3 5 3 -0 3 6 6 7 8 7 5 4 5 3 3 5 5 5 7 7 9 14 17 18 19 14 8 7 11 10 10 12 9 8 11 10 6 5 4 4 1 -0 3 6 10 12 8 3 1 0 -1 -2 -1
19 30 31 12 -3 -1 1 8 21 18 10 12 5 -4 0 7 12 15 12 7 7 5 5 6 5 1 -1 2 4 5 6 5 4 4 0 2 8 4 -0 6 11 10 10 9 8 6 5 7 6 4 5 6 6 6 8 13 20 23 22 19 12 9 12 13 10 10 11 9 8 8 6 4 4 4 3 0 1 4 6 10 10 6 3 2 1 -2 -2 0
8 17 38 37 11 1 9 11 13 18 17 12 6 6 14 16 16 19 15 10 7 5 5 5 1 -2 -0 4 6 4 5 5 5 4 0 4 11 8 2 8 13 13 13 11 8 5 5 8 8 4 5 7 6 8 14 20 24 24 19 15 12 11 11 9 9 8 7 6 5 3 3 4 3 3 1 0 2 4 6 8 8 5 2 1 1 -2 -2 1
2 9 28 45 30 7 15 27 15 4 9 11 3 1 8 11 11 13 11 8 7 7 5 2 -0 0 3 7 7 5 4 3 2 2 2 5 10 8 3 6 13 16 12 7 7 8 6 6 8 6 5 7 10 13 17 16 14 13 11 10 10 9 8 8 7 7 5 3 2 2 3 4 3 1 -0 -1 0 1 4 6 5 4 3 2 -1 -5 -2 6
5 9 14 32 44 17 -3 14 23 10 0 -5 -6 1 8 7 4 4 5 4 3 2 1 3 3 4 6 6 4 5 2 -2 0 5 9 12 11 6 3 6 13 17 12 7 9 10 6 5 9 10 9 12 12 10 9 8 7 9 8 8 9 8 6 5 3 6 7 4 4 4 5 7 6 2 -2 -2 0 1 2 4 5 6 4 -2 -7 -4 5 12
10 15 11 9 33 39 11 -7 0 16 17 -1 -8 2 7 3 1 3 4 3 2 2 4 5 5 6 8 5 2 1 -3 -1 10 16 16 14 9 7 12 15 16 17 13 11 11 8 8 9 9 10 12 14 11 6 4 5 6 7 7 9 10 7 5 6 5 8 10 7 5 6 8 9 6 2 0 -0 1 1 1 4 7 6 -0 -6 -3 7 13 15
11 17 17 3 6 27 35 18 -3 -1 8 8 12 17 12 5 2 0 0 1 2 3 3 1 2 3 4 3 -1 -6 -3 9 19 18 14 13 12 14 19 18 15 13 12 12 12 11 13 14 8 7 8 6 6 5 3 4 5 6 8 11 10 9 9 9 9 10 8 6 5 8 10 8 3 2 2 1 2 3 3 7 6 0 -4 -1 7 13 12 9
3 9 15 18 11 3 16 34 31 20 8 -0 2 5 7 12 12 7 7 7 7 6 4 2 -0 -1 -0 0 -2 -4 3 14 18 15 16 19 18 16 16 13 10 10 13 14 13 11 10 7 6 7 6 5 7 8 6 7 9 9 11 11 13 19 18 12 12 12 7 5 5 4 5 6 4 4 3 3 4 4 5 7 2 -2 1 7 10 10 8 6
0 6 7 13 17 10 9 16 23 32 34 26 17 5 -3 -2 2 3 1 1 0 1 4 6 8 13 13 6 0 2 9 14 15 16 19 19 16 11 9 7 6 8 10 9 9 8 6 5 8 8 4 1 3 3 1 2 2 2 4 3 7 14 13 11 11 3 -1 3 3 1 4 6 4 3 4 5 4 4 7 5 -0 1 7 8 8 10 13 15
4 4 5 7 8 9 8 -1 0 17 26 29 38 38 24 14 11 9 7 8 9 7 5 5 2 2 0 -5 -2 6 13 15 13 12 12 9 6 5 4 4 6 7 5 3 3 3 4 10 12 8 4 -0 1 3 4 6 9 9 9 8 8 7 5 2 -5 -10 -1 8 5 5 8 5 3 6 6 3 4 8 7 -1 -3 3 7 9 12 15 17 13
16 14 10 9 7 8 3 -4 5 17 7 -1 14 27 30 31 29 25 25 27 29 28 27 28 25 19 13 10 12 18 19 16 11 7 6 3 2 3 2 1 3 3 1 2 3 4 7 8 4 2 2 -0 5 11 8 6 10 9 7 8 9 7 4 -4 -9 -0 10 4 -1 8 10 3 3 4 0 4 12 10 -1 -5 1 9 10 12 13 12 10 4
8 11 8 5 9 18 17 7 6 9 1 -2 5 6 7 15 17 17 17 14 15 20 24 31 37 36 32 27 22 23 21 13 10 6 1 0 3 4 4 4 2 1 0 1 4 7 5 -0 -2 -1 -3 -1 9 14 7 5 8 5 3 6 6 7 5 1 3 10 6 -4 -0 8 3 -3 2 4 7 15 13 -1 -5 3 12 13 10 9 10 10 8 5
-2 -8 -10 -7 -2 7 16 17 11 8 6 7 9 6 6 11 11 10 9 5 7 11 9 15 19 15 15 18 16 18 16 8 8 6 -1 1 6 6 6 4 1 -0 -0 3 7 6 2 1 4 5 5 9 12 10 9 10 8 4 5 6 7 11 11 6 6 7 1 -2 3 3 -3 -1 6 12 15 10 -2 -4 6 13 10 4 2 6 11 12 6 -1
8 2 -1 -2 -2 -0 6 13 12 12 12 7 6 9 11 12 9 6 3 3 5 4 1 7 9 5 6 10 11 14 12 7 6 4 2 4 5 6 6 4 3 2 0 2 6 6 10 16 16 15 15 11 6 7 8 7 6 5 5 5 9 18 17 8 6 5 1 1 6 9 11 10 9 9 6 -0 2 11 14 6 -1 -1 4 8 8 5 -0 -4
1 8 11 8 8 7 5 7 10 13 15 9 5 5 6 8 9 6 5 5 2 1 4 7 9 12 13 8 9 16 13 6 3 2 3 6 5 6 7 3 4 5 6 12 17 18 20 19 14 12 5 -1 3 4 -2 1 6 0 -6 0 12 17 12 2 0 2 3 9 15 14 11 9 7 4 2 5 12 9 -1 -4 1 7 10 10 8 6 6 6
3 5 7 8 12 13 8 7 6 7 11 14 13 9 5 8 9 5 8 12 9 11 16 15 14 21 19 10 9 13 10 6 6 4 3 4 4 7 9 8 5 0 1 9 15 17 15 10 7 4 -4 -3 2 -3 -0 15 11 -9 -6 16 22 15 10 5 3 6 10 15 15 8 4 6 4 0 1 5 4 -3 -2 6 12 13 13 12 12 12 10 8
Height
5856 5858 5859 5861 5863 5864 5865 5867 5868 5869 5871 5872 5873 5874 5875 5875 5876 5877 5878 5879 5879 5880 5880 5881 5881 5882 5882 5883 5884 5884 5885 5886 5886 5887 5888 5888 5888 5889 5889 5890 5890 5890 5891 5891 5891 5891 5892 5892 5892 5892 5892 5892 5892 5892 5892 5892 5891 5891 5891 5890 5890 5889 5889 5888 5887 5886 5886 5885 5885 5884 5884 5884 5884 5884 5885 5885 5885 5885 5884 5883 5883 5882 5881 5881 5880 5880 5879 5879
5854 5856 5857 5859 5860 5862 5863 5865 5866 5868 5869 5870 5871 5872 5873 5874 5875 5876 5876 5877 5878 5879 5879 5880 5880 5881 5881 5882 5883 5883 5884 5885 5885 5886 5886 5887 5887 5888 5888 5888 5889 5889 5890 5890 5890 5890 5890 5891 5891 5891 5891 5891 5890 5890 5890 5890 5890 5889 5889 5889 5888 5888 5887 5886 5885 5885 5884 5884 5883 5883 5883 5883 5883 5883 5883 5883 5883 5883 5883 5882 5882 5881 5880 5880 5879 5879 5878 5877
5852 5853 5855 5857 5858 5860 5861 5863 5864 5865 5867 5868 5869 5870 5871 5872 5873 5874 5875 5876 5876 5877 5878 5878 5879 5880 5880 5881 5881 5882 5883 5883 5884 5885 5885 5885 5886 5886 5887 5887 5887 5888 5888 5888 5888 5889 5889 5889 5889 5889 5889 5889 5889 5889 5888 5888 5888 5888 5887 5887 5887 5886 5885 5885 5884 5883 5882 5882 5881 5881 5881 5881 5881 5881 5881 5881 5881 5882 5881 5880 5880 5880 5880 5879 5878 5877 5877 5876
5849 5850 5852 5854 5856 5857 5859 5860 5862 5863 5865 5866 5867 5868 5869 5870 5871 5872 5873 5874 5875 5875 5876 5877 5877 5878 5879 5879 5880 5880 5881 5882 5882 5883 5883 5884 5884 5885 5885 5886 5886 5886 5886 5887 5887 5887 5887 5887 5887 5887 5887 5887 5887 5887 5886 5886 5886 5886 5885 5885 5885 5884 5883 5883 5882 5881 5880 5880 5879 5879 5879 5879 5879 5880 5880 5879 5879 5880 5879 5878 5879 5878 5878 5878 5877 5876 5876 5875
5846 5847 5849 5851 5853 5855 5856 5858 5859 5861 5862 5863 5865 5866 5867 5868 5869 5870 5871 5872 5873 5874 5874 5875 5876 5876 5877 5877 5878 5879 5879 5880 5880 5881 5881 5882 5883 5883 5883 5884 5884 5884 5885 5885 5885 5885 5885 5885 5885 5885 5885 5885 5885 5885 5884 5884 5884 5884 5883 5883 5883 5882 5881 5880 5880 5879 5879 5878 5878 5878 5878 5878 5878 5878 5878 5878 5877 5877 5877 5877 5877 5876 5876 5875 5875 5875 5874 5874
5843 5844 5846 5848 5850 5852 5853 5855 5856 5858 5859 5861 5862 5863 5865 5866 5867 5868 5869 5870 5871 5872 5872 5873 5874 5874 5875 5876 5876 5877 5877 5878 5878 5879 5879 5880 5880 5881 5881 5882 5882 5882 5883 5883 5883 5883 5883 5883 5883 5883 5883 5883 5883 5882 5882 5882 5882 5882 5881 5881 5880 5880 5879 5878 5878 5877 5877 5877 5876 5876 5876 5876 5876 5876 5876 5876 5876 5876 5875 5875 5874 5874 5874 5873 5873 5872 5872 5872
5839 5841 5843 5845 5846 5848 5850 5852 5853 5855 5856 5858 5859 5861 5862 5863 5864 5865 5866 5868 5868 5869 5870 5871 5872 5872 5873 5873 5874 5874 5875 5876 5876 5877 5877 5878 5878 5879 5879 5880 5880 5880 5880 5880 5881 5881 5881 5881 5881 5881 5881 5881 5881 5880 5880 5880 5879 5879 5879 5878 5878 5878 5878 5877 5876 5876 5875 5875 5875 5874 5874 5874 5874 5874 5874 5874 5875 5874 5873 5873 5872 5872 5872 5871 5870 5870 5870 5869
5836 5838 5840 5841 5843 5845 5847 5848 5850 5852 5853 5855 5856 5858 5859 5860 5862 5863 5864 5865 5866 5867 5868 5869 5869 5870 5871 5871 5872 5872 5873 5874 5874 5874 5875 5876 5876 5876 5877 5877 5878 5878 5878 5878 5879 5879 5879 5879 5879 5879 5879 5878 5878 5878 5877 5877 5877 5877 5876 5876 5876 5876 5876 5875 5875 5874 5873 5873 5873 5872 5872 5872 5872 5872 5872 5871 5872 5872 5872 5871 5870 5870 5870 5869 5869 5868 5868 5867
5833 5834 5836 5838 5840 5841 5843 5845 5847 5848 5850 5852 5853 5855 5856 5857 5859 5860 5861 5862 5863 5864 5865 5866 5867 5868 5868 5869 5870 5870 5870 5871 5872 5872 5872 5873 5873 5874 5875 5875 5875 5876 5876 5876 5876 5876 5877 5877 5877 5876 5876 5876 5876 5875 5875 5875 5875 5874 5874 5874 5874 5874 5874 5873 5873 5872 5872 5871 5871 5870 5870 5870 5870 5869 5869 5869 5869 5870 5869 5869 5868 5868 5867 5867 5866 5866 5866 5865
5829 5831 5832 5834 5836 5838 5839 5841 5843 5845 5847 5848 5850 5851 5853 5854 5856 5857 5858 5859 5860 5861 5862 5863 5864 5865 5866 5866 5867 5867 5867 5869 5870 5870 5870 5870 5871 5872 5872 5873 5873 5873 5873 5874 5874 5874 5874 5874 5874 5874 5874 5873 5873 5873 5873 5873 5872 5872 5872 5871 5871 5871 5871 5871 5870 5870 5869 5869 5869 5868 5867 5867 5867 5866 5866 5867 5867 5867 5867 5866 5866 5866 5865 5865 5864 5864 5863 5863
5825 5827 5829 5830 5832 5834 5836 5837 5839 5841 5843 5845 5846 5848 5849 5851 5852 5853 5855 5856 5857 5858 5859 5860 5861 5862 5863 5864 5864 5864 5865 5866 5867 5867 5867 5868 5868 5869 5870 5870 5870 5871 5871 5871 5871 5871 5871 5871 5871 5871 5871 5871 5870 5870 5870 5870 5870 5869 5869 5868 5868 5868 5868 5868 5868 5867 5867 5867 5866 5865 5864 5864 5864 5863 5863 5864 5864 5864 5864 5864 5864 5863 5863 5863 5862 5862 5861 5861
5821 5823 5825 5826 5828 5830 5832 5833 5835 5837 5839 5840 5842 5844 5845 5847 5848 5850 5851 5853 5854 5855 5856 5857 5858 5859 5860 5861 5861 5861 5862 5863 5864 5864 5865 5865 5866 5866 5867 5867 5868 5868 5868 5868 5868 5868 5868 5868 5868 5868 5868 5868 5868 5867 5867 5867 5867 5867 5866 5866 5866 5865 5865 5865 5865 5864 5864 5864 5863 5862 5861 5861 5861 5860 5860 5861 5861 5861 5861 5861 5861 5861 5861 5860 5860 5860 5859 5859
5817 5819 5821 5823 5824 5826 5828 5830 5831 5833 5835 5836 5838 5840 5841 5843 5844 5846 5847 5849 5850 5851 5852 5853 5854 5855 5857 5858 5858 5858 5859 5860 5861 5861 5862 5862 5863 5864 5864 5864 5865 5865 5865 5865 5865 5865 5865 5865 5865 5865 5865 5865 5865 5864 5864 5864 5864 5864 5863 5863 5863 5862 5862 5862 5862 5862 5861 5861 5861 5860 5859 5859 5858 5858 5858 5858 5858 5859 5859 5859 5859 5858 5858 5857 5857 5857 5857 5857
5813 5815 5817 5819 5820 5822 5824 5826 5827 5829 5831 5832 5834 5835 5837 5839 5840 5842 5843 5845 5846 5848 5849 5850 5851 5852 5853 5854 5855 5855 5856 5857 5857 5858 5859 5859 5860 5860 5861 5861 5861 5862 5862 5862 5862 5862 5862 5862 5862 5862 5862 5862 5862 5861 5861 5861 5861 5861 5860 5861 5860 5860 5860 5860 5859 5859 5858 5858 5858 5857 5856 5856 5856 5855 5855 5855 5855 5856 5856 5856 5856 5855 5855 5855 5854 5854 5854 5854
5808 5810 5812 5814 5816 5818 5820 5821 5823 5825 5827 5828 5830 5831 5833 5834 5836 5838 5839 5841 5842 5843 5845 5846 5847 5848 5849 5851 5851 5852 5853 5853 5854 5854 5855 5856 5857 5857 5857 5858 5858 5858 5858 5859 5859 5859 5859 5859 5859 5859 5859 5859 5859 5858 5858 5858 5858 5857 5857 5857 5858 5858 5858 5857 5856 5856 5855 5855 5854 5854 5854 5854 5853 5853 5853 5853 5853 5853 5853 5853 5853 5853 5852 5852 5851 5851 5851 5851
5803 5805 5808 5810 5811 5813 5815 5817 5819 5821 5822 5824 5825 5827 5828 5830 5831 5833 5835 5836 5838 5839 5841 5842 5843 5844 5846 5847 5848 5848 5849 5849 5850 5851 5852 5853 5853 5854 5854 5854 5854 5855 5855 5855 5855 5855 5855 5855 5855 5855 5856 5856 5856 5855 5854 5854 5854 5853 5853 5855 5856 5856 5855 5854 5854 5853 5852 5851 5851 5851 5852 5851 5850 5850 5850 5850 5850 5850 5850 5850 5850 5850 5849 5849 5849 5848 5848 5848
5798 5800 5802 5805 5806 5808 5811 5813 5814 5816 5818 5819 5821 5822 5823 5825 5827 5828 5830 5832 5833 5835 5836 5838 5840 5840 5842 5843 5844 5845 5845 5845 5846 5847 5848 5849 5849 5850 5850 5850 5851 5851 5851 5851 5852 5852 5852 5851 5852 5852 5852 5853 5853 5852 5850 5850 5850 5849 5850 5852 5853 5853 5852 5851 5850 5850 5849 5849 5849 5848 5849 5849 5848 5847 5847 5847 5847 5847 5847 5847 5847 5847 5846 5846 5845 5845 5845 5845
5793 5795 5797 5799 5801 5803 5806 5808 5809 5811 5813 5814 5816 5817 5819 5820 5822 5823 5825 5827 5829 5831 5832 5834 5835 5836 5837 5839 5840 5840 5841 5842 5842 5843 5844 5844 5845 5846 5846 5846 5847 5847 5848 5848 5848 5848 5848 5848 5848 5849 5850 5850 5849 5847 5845 5846 5846 5846 5848 5849 5850 5849 5849 5848 5847 5846 5846 5845 5845 5846 5846 5846 5845 5845 5845 5844 5844 5844 5844 5844 5844 5844 5843 5843 5842 5842 5842 5842
5787 5789 5791 5794 5796 5798 5801 5803 5804 5806 5808 5809 5811 5812 5814 5815 5817 5818 5820 5822 5824 5826 5827 5829 5830 5831 5833 5835 5836 5836 5837 5838 5838 5839 5839 5840 5841 5841 5842 5842 5843 5843 5844 5844 5844 5844 5844 5844 5844 5846 5847 5846 5844 5842 5842 5842 5843 5843 5844 5845 5845 5846 5846 5845 5843 5842 5842 5841 5842 5842 5843 5844 5843 5841 5841 5841 5841 5841 5841 5841 5840 5840 5840 5840 5839 5839 5839 5839
5782 5784 5786 5789 5791 5793 5796 5797 5799 5801 5802 5804 5806 5807 5809 5810 5812 5813 5815 5817 5819 5820 5822 5823 5825 5827 5828 5830 5831 5832 5833 5833 5833 5834 5835 5836 5836 5837 5837 5838 5839 5839 5839 5840 5839 5840 5840 5840 5842 5843 5843 5841 5839 5839 5839 5839 5840 5840 5840 5840 5841 5842 5842 5841 5839 5838 5838 5837 5838 5839 5839 5841 5841 5838 5838 5838 5839 5838 5837 5837 5837 5837 5836 5836 5836 5836 5836 5836
5776 5778 5780 5783 5786 5788 5790 5792 5794 5796 5797 5799 5800 5802 5804 5805 5806 5808 5810 5812 5813 5815 5816 5818 5820 5822 5823 5825 5826 5827 5828 5828 5829 5829 5830 5831 5831 5832 5833 5834 5834 5835 5835 5835 5835 5836 5836 5836 5839 5839 5837 5836 5836 5836 5836 5836 5836 5836 5836 5836 5836 5838 5838 5837 5835 5835 5834 5832 5834 5835 5835 5837 5838 5836 5835 5835 5835 5834 5834 5833 5833 5833 5833 5833 5833 5833 5833 5833
5770 5772 5774 5776 5780 5782 5784 5786 5788 5790 5792 5793 5795 5797 5798 5800 5801 5803 5805 5805 5808 5810 5811 5813 5815 5817 5818 5819 5820 5822 5822 5823 5824 5825 5826 5826 5826 5827 5828 5829 5829 5830 5830 5830 5831 5831 5831 5833 5835 5834 5832 5832 5832 5832 5832 5832 5833 5833 5832 5832 5832 5834 5833 5832 5831 5830 5829 5828 5829 5830 5830 5832 5834 5833 5832 5831 5831 5830 5830 5830 5830 5830 5830 5829 5829 5829 5830 5830
5764 5766 5767 5770 5773 5776 5778 5781 5782 5784 5787 5788 5790 5791 5792 5794 5795 5797 5798 5799 5802 5805 5805 5807 5809 5811 5812 5813 5815 5816 5817 5818 5819 5820 5821 5821 5821 5822 5823 5824 5825 5825 5825 5826 5826 5826 5827 5829 5830 5828 5828 5829 5828 5828 5828 5828 5828 5829 5828 5828 5829 5830 5828 5827 5827 5827 5826 5824 5825 5825 5825 5827 5830 5829 5828 5828 5827 5827 5826 5826 5827 5827 5827 5826 5826 5826 5827 5827
5757 5760 5761 5764 5767 5769 5772 5774 5776 5779 5781 5783 5784 5785 5786 5788 5790 5792 5792 5792 5795 5799 5801 5801 5803 5804 5806 5808 5809 5809 5811 5812 5814 5815 5816 5816 5817 5818 5818 5820 5819 5820 5821 5822 5821 5821 5822 5824 5824 5824 5825 5824 5824 5825 5825 5824 5824 5824 5824 5824 5825 5825 5823 5822 5822 5822 5821 5820 5821 5821 5818 5821 5826 5825 5824 5824 5823 5823 5823 5823 5823 5823 5823 5823 5823 5823 5824 5824
5751 5753 5755 5757 5760 5763 5766 5768 5771 5774 5775 5777 5778 5779 5781 5783 5785 5786 5786 5785 5786 5792 5796 5796 5797 5798 5801 5802 5803 5804 5805 5807 5809 5810 5811 5811 5813 5813 5814 5815 5814 5815 5817 5817 5815 5815 5817 5819 5820 5820 5820 5820 5820 5820 5821 5820 5819 5819 5820 5821 5820 5820 5819 5818 5818 5817 5816 5816 5818 5816 5813 5815 5820 5821 5820 5819 5819 5819 5819 5819 5819 5819 5819 5819 5820 5820 5820 5820
5744 5747 5749 5750 5753 5756 5758 5763 5767 5768 5769 5772 5772 5773 5775 5777 5779 5779 5780 5779 5778 5784 5790 5792 5791 5792 5795 5796 5798 5800 5799 5802 5805 5805 5806 5807 5808 5809 5809 5809 5810 5811 5812 5811 5809 5810 5813 5815 5815 5815 5815 5815 5815 5816 5818 5816 5814 5814 5816 5817 5816 5815 5815 5815 5814 5813 5811 5811 5812 5812 5810 5810 5813 5816 5816 5814 5814 5814 5815 5815 5815 5815 5815 5815 5816 5816 5816 5817
5738 5741 5742 5744 5746 5749 5753 5758 5761 5761 5764 5765 5765 5768 5769 5771 5772 5773 5775 5772 5770 5776 5782 5785 5786 5787 5790 5792 5794 5794 5793 5798 5802 5800 5801 5802 5803 5803 5803 5804 5806 5806 5806 5805 5803 5806 5810 5810 5810 5810 5810 5810 5811 5813 5813 5811 5808 5809 5812 5813 5811 5811 5811 5810 5810 5808 5807 5806 5805 5807 5809 5807 5806 5810 5811 5809 5810 5810 5810 5810 5810 5810 5811 5811 5812 5812 5813 5813
5732 5734 5736 5738 5740 5743 5747 5751 5753 5755 5757 5757 5758 5761 5762 5764 5765 5767 5768 5765 5765 5770 5774 5778 5782 5784 5785 5786 5788 5789 5789 5793 5796 5795 5796 5797 5797 5798 5798 5799 5801 5801 5801 5800 5799 5802 5805 5805 5805 5805 5805 5806 5808 5808 5807 5806 5804 5804 5806 5807 5807 5807 5806 5806 5805 5803 5803 5801 5799 5803 5807 5803 5801 5804 5806 5804 5805 5806 5805 5805 5805 5806 5806 5807 5807 5808 5808 5809
5725 5727 5729 5731 5733 5737 5740 5743 5747 5749 5748 5749 5751 5753 5755 5757 5758 5761 5761 5759 5761 5764 5766 5770 5776 5780 5780 5781 5783 5785 5786 5788 5789 5790 5791 5791 5792 5793 5793 5795 5795 5795 5796 5796 5796 5797 5799 5800 5800 5800 5800 5802 5803 5803 5802 5801 5801 5800 5801 5801 5802 5802 5801 5801 5800 5799 5798 5795 5795 5800 5802 5799 5795 5797 5801 5801 5801 5801 5800 5800 5801 5801 5802 5802 5803 5803 5803 5803
5718 5720 5722 5723 5726 5730 5733 5737 5741 5741 5740 5742 5744 5745 5748 5749 5752 5754 5751 5753 5758 5757 5757 5763 5770 5774 5776 5777 5778 5780 5781 5782 5783 5785 5785 5786 5787 5788 5789 5789 5789 5790 5791 5791 5791 5793 5794 5795 5795 5795 5796 5797 5797 5797 5797 5797 5797 5796 5796 5796 5796 5796 5796 5795 5794 5794 5792 5790 5793 5797 5797 5794 5790 5790 5796 5797 5796 5796 5796 5796 5797 5797 5797 5797 5797 5798 5798 5798
5710 5712 5713 5716 5720 5723 5727 5731 5734 5734 5733 5734 5736 5737 5739 5742 5744 5743 5744 5751 5755 5750 5752 5758 5762 5766 5770 5772 5774 5775 5776 5777 5779 5780 5780 5781 5782 5782 5783 5784 5784 5785 5785 5785 5787 5788 5788 5789 5790 5791 5791 5791 5792 5792 5792 5792 5792 5792 5791 5791 5790 5790 5789 5789 5788 5789 5787 5787 5790 5791 5791 5789 5785 5786 5790 5791 5791 5792 5792 5792 5793 5793 5793 5793 5793 5793 5793 5794
5703 5704 5706 5709 5713 5716 5721 5725 5726 5725 5725 5727 5727 5728 5732 5733 5732 5734 5742 5749 5747 5744 5749 5753 5753 5758 5762 5766 5769 5770 5771 5772 5773 5775 5775 5776 5776 5777 5778 5778 5779 5779 5778 5780 5782 5783 5783 5783 5784 5785 5785 5787 5787 5787 5787 5787 5787 5787 5786 5785 5785 5783 5783 5782 5783 5783 5783 5784 5785 5785 5784 5782 5781 5784 5785 5784 5786 5787 5787 5788 5788 5789 5789 5789 5789 5789 5790 5789
5697 5697 5699 5702 5706 5710 5715 5717 5716 5715 5717 5719 5718 5719 5723 5721 5721 5731 5739 5740 5738 5741 5746 5746 5747 5750 5754 5759 5762 5764 5766 5767 5768 5769 5770 5770 5770 5771 5772 5773 5774 5774 5774 5776 5777 5776 5776 5777 5779 5779 5780 5782 5781 5781 5781 5782 5782 5781 5780 5780 5779 5778 5777 5777 5778 5778 5778 5778 5779 5778 5777 5775 5777 5781 5780 5779 5780 5780 5781 5782 5783 5784 5784 5784 5785 5786 5785 5785
5690 5690 5691 5696 5699 5702 5706 5709 5708 5708 5709 5709 5708 5710 5711 5710 5718 5729 5731 5730 5733 5737 5740 5741 5741 5743 5746 5750 5755 5758 5760 5761 5762 5763 5763 5764 5764 5765 5767 5768 5769 5770 5770 5770 5770 5770 5770 5771 5774 5775 5775 5775 5775 5776 5776 5775 5775 5774 5775 5774 5773 5773 5774 5773 5773 5772 5772 5772 5773 5772 5771 5770 5773 5776 5776 5775 5775 5775 5775 5776 5776 5777 5778 5779 5780 5780 5780 5779
5684 5683 5684 5687 5690 5694 5698 5700 5700 5699 5698 5698 5698 5698 5698 5705 5717 5722 5721 5724 5729 5731 5735 5737 5736 5737 5740 5743 5746 5749 5752 5753 5755 5756 5756 5757 5759 5760 5762 5763 5764 5765 5765 5764 5764 5765 5765 5765 5768 5769 5769 5769 5769 5770 5770 5769 5768 5768 5769 5768 5768 5770 5770 5769 5767 5766 5766 5765 5765 5766 5766 5767 5769 5770 5770 5770 5770 5771 5770 5770 5770 5771 5772 5773 5773 5773 5772 5772
5676 5675 5675 5677 5683 5687 5690 5691 5692 5691 5688 5689 5687 5685 5693 5705 5712 5713 5715 5721 5724 5726 5731 5732 5731 5732 5734 5735 5738 5740 5744 5746 5748 5749 5750 5752 5753 5754 5756 5758 5759 5760 5760 5760 5759 5760 5759 5759 5761 5762 5763 5764 5764 5764 5764 5763 5762 5762 5762 5762 5764 5765 5764 5762 5761 5761 5761 5759 5758 5760 5762 5764 5764 5764 5764 5765 5766 5766 5766 5766 5766 5766 5767 5767 5766 5766 5765 5764
5667 5667 5666 5670 5677 5680 5681 5682 5684 5682 5679 5678 5674 5678 5693 5703 5705 5707 5711 5715 5718 5722 5724 5724 5725 5727 5727 5729 5730 5732 5735 5738 5740 5741 5743 5745 5746 5748 5750 5752 5754 5754 5755 5755 5754 5754 5753 5752 5754 5756 5757 5757 5758 5757 5757 5757 5757 5756 5757 5758 5759 5758 5757 5757 5756 5755 5755 5754 5753 5755 5757 5758 5758 5759 5760 5761 5760 5760 5760 5761 5762 5762 5763 5762 5760 5760 5759 5759
5660 5660 5658 5663 5670 5672 5673 5675 5674 5673 5671 5667 5665 5677 5691 5695 5697 5702 5703 5706 5711 5714 5715 5717 5720 5721 5721 5723 5724 5726 5727 5729 5731 5733 5736 5738 5739 5741 5745 5746 5747 5749 5749 5749 5747 5748 5748 5747 5747 5749 5749 5750 5752 5751 5750 5751 5752 5752 5752 5753 5752 5751 5751 5752 5751 5750 5750 5750 5749 5750 5751 5751 5753 5754 5756 5756 5755 5754 5755 5756 5757 5757 5757 5755 5755 5754 5754 5754
5652 5649 5650 5658 5662 5663 5666 5667 5666 5665 5662 5657 5659 5674 5685 5685 5689 5694 5694 5698 5704 5705 5708 5712 5714 5715 5715 5716 5718 5719 5720 5721 5723 5725 5727 5730 5732 5734 5738 5740 5741 5743 5742 5742 5742 5742 5742 5740 5739 5741 5743 5744 5744 5744 5745 5748 5748 5748 5747 5746 5746 5745 5745 5746 5746 5746 5745 5745 5745 5745 5744 5745 5748 5749 5750 5750 5749 5749 5750 5752 5752 5751 5750 5750 5749 5749 5748 5748
5642 5640 5646 5655 5655 5656 5661 5660 5656 5653 5651 5651 5656 5669 5677 5678 5682 5686 5689 5693 5696 5697 5702 5706 5707 5708 5709 5710 5711 5712 5713 5714 5716 5717 5719 5721 5724 5726 5730 5733 5736 5737 5736 5736 5736 5736 5735 5734 5734 5736 5737 5737 5737 5740 5742 5743 5742 5741 5740 5740 5740 5740 5739 5740 5740 5741 5741 5740 5740 5739 5738 5739 5742 5743 5743 5743 5744 5745 5746 5747 5746 5745 5745 5744 5743 5743 5742 5741
5634 5633 5641 5648 5647 5651 5655 5648 5643 5644 5644 5648 5655 5664 5668 5670 5674 5678 5682 5686 5687 5690 5695 5697 5699 5701 5702 5704 5704 5706 5707 5707 5709 5710 5710 5713 5716 5719 5723 5727 5729 5730 5729 5728 5729 5730 5730 5730 5730 5729 5730 5731 5733 5736 5736 5735 5735 5735 5735 5734 5735 5735 5735 5735 5735 5736 5737 5736 5736 5734 5732 5733 5734 5736 5736 5736 5738 5741 5741 5741 5741 5740 5739 5738 5737 5736 5735 5734
5624 5626 5637 5641 5639 5643 5643 5635 5635 5638 5638 5644 5654 5659 5659 5662 5667 5671 5675 5678 5680 5683 5686 5689 5691 5694 5695 5697 5698 5699 5700 5701 5702 5702 5703 5706 5709 5713 5716 5719 5720 5721 5721 5721 5723 5725 5725 5725 5724 5723 5724 5726 5727 5728 5728 5728 5729 5728 5728 5730 5731 5731 5731 5730 5731 5732 5732 5731 5730 5729 5727 5727 5728 5728 5729 5730 5732 5735 5735 5735 5734 5733 5732 5731 5730 5728 5727 5725
5617 5622 5630 5630 5630 5634 5632 5626 5628 5630 5634 5645 5652 5651 5652 5658 5662 5665 5667 5671 5673 5675 5678 5680 5684 5687 5688 5691 5692 5693 5694 5694 5695 5696 5698 5699 5702 5705 5708 5709 5711 5712 5713 5715 5717 5719 5719 5719 5719 5718 5719 5720 5720 5720 5721 5721 5721 5721 5724 5726 5726 5726 5726 5725 5725 5725 5724 5723 5724 5723 5721 5722 5723 5723 5723 5724 5724 5726 5727 5727 5726 5724 5723 5723 5721 5719 5717 5716
5612 5617 5619 5619 5622 5624 5619 5617 5621 5625 5633 5643 5642 5640 5646 5651 5652 5655 5660 5662 5665 5668 5670 5673 5677 5680 5682 5684 5684 5686 5688 5688 5688 5690 5691 5692 5695 5698 5700 5701 5703 5705 5707 5710 5712 5712 5712 5713 5713 5712 5712 5712 5712 5713 5714 5716 5717 5718 5720 5720 5719 5720 5719 5718 5718 5717 5716 5717 5717 5717 5716 5716 5718 5719 5718 5718 5718 5718 5719 5718 5717 5716 5715 5713 5711 5710 5708 5707
5606 5608 5610 5611 5612 5611 5610 5614 5620 5622 5629 5633 5631 5634 5640 5641 5645 5650 5653 5655 5657 5660 5663 5666 5670 5672 5674 5675 5677 5678 5680 5680 5682 5683 5684 5686 5689 5691 5693 5694 5697 5699 5701 5703 5704 5704 5704 5705 5706 5704 5704 5705 5706 5707 5710 5712 5712 5712 5712 5712 5712 5712 5712 5711 5711 5709 5709 5710 5711 5711 5711 5711 5713 5713 5712 5712 5712 5712 5712 5711 5710 5709 5707 5705 5703 5702 5700 5699
5599 5598 5601 5603 5602 5602 5605 5611 5614 5615 5620 5623 5623 5628 5631 5634 5640 5644 5644 5646 5649 5652 5654 5657 5660 5662 5663 5666 5669 5671 5672 5673 5675 5676 5678 5681 5683 5685 5687 5688 5691 5693 5694 5694 5696 5696 5696 5697 5699 5699 5699 5701 5702 5702 5704 5705 5705 5704 5705 5705 5705 5705 5705 5704 5702 5701 5703 5704 5704 5706 5707 5706 5706 5705 5705 5707 5705 5704 5704 5704 5703 5701 5698 5697 5696 5694 5693 5691
5591 5590 5593 5596 5595 5594 5597 5603 5605 5608 5614 5617 5617 5621 5624 5627 5632 5634 5634 5638 5640 5643 5644 5645 5648 5652 5654 5659 5662 5663 5664 5666 5667 5670 5673 5675 5676 5678 5680 5681 5683 5686 5687 5688 5688 5689 5689 5690 5693 5694 5695 5696 5696 5696 5696 5697 5698 5698 5699 5699 5699 5699 5699 5696 5694 5696 5699 5697 5697 5700 5701 5701 5701 5698 5698 5700 5699 5698 5698 5696 5694 5692 5691 5690 5689 5687 5685 5684
5583 5583 5587 5590 5589 5588 5591 5597 5601 5604 5609 5609 5610 5614 5616 5618 5623 5624 5627 5631 5632 5633 5634 5634 5638 5644 5648 5652 5652 5653 5656 5658 5659 5663 5666 5667 5670 5671 5673 5675 5676 5679 5680 5680 5680 5681 5682 5684 5686 5686 5687 5690 5689 5689 5689 5689 5690 5691 5692 5692 5693 5692 5690 5688 5688 5692 5691 5688 5691 5694 5693 5695 5695 5691 5691 5694 5693 5692 5691 5688 5686 5685 5684 5683 5682 5679 5678 5677
5574 5577 5581 5583 5583 5585 5588 5592 5595 5597 5601 5602 5603 5606 5608 5611 5615 5618 5621 5623 5623 5625 5627 5627 5632 5638 5640 5642 5643 5643 5647 5651 5653 5656 5659 5661 5663 5664 5666 5667 5669 5671 5672 5671 5672 5673 5673 5676 5679 5678 5678 5680 5681 5681 5682 5681 5681 5683 5684 5685 5686 5684 5682 5681 5682 5684 5683 5683 5686 5686 5685 5690 5689 5683 5685 5688 5686 5683 5682 5680 5679 5679 5678 5677 5674 5672 5671 5670
5567 5570 5574 5575 5577 5580 5583 5585 5587 5589 5592 5594 5594 5598 5602 5605 5610 5613 5614 5614 5615 5618 5620 5622 5628 5632 5632 5634 5633 5635 5641 5646 5648 5650 5653 5654 5655 5656 5658 5659 5661 5663 5664 5663 5664 5665 5665 5667 5670 5670 5668 5670 5672 5672 5673 5673 5673 5675 5676 5677 5677 5674 5672 5673 5676 5677 5676 5677 5680 5677 5676 5682 5683 5678 5678 5678 5675 5673 5673 5673 5673 5672 5671 5669 5667 5665 5665 5665
5560 5563 5567 5569 5570 5574 5577 5579 5581 5582 5584 5585 5587 5592 5595 5598 5604 5606 5605 5606 5609 5611 5613 5617 5622 5624 5624 5625 5625 5629 5637 5641 5641 5643 5645 5646 5647 5650 5651 5652 5654 5655 5655 5656 5657 5657 5658 5658 5661 5662 5659 5661 5665 5665 5665 5667 5666 5665 5668 5669 5666 5664 5666 5668 5671 5672 5670 5670 5671 5668 5668 5675 5678 5673 5669 5667 5665 5665 5666 5666 5665 5663 5662 5661 5660 5659 5658 5658
5554 5556 5560 5563 5564 5566 5570 5572 5574 5575 5576 5578 5582 5585 5588 5592 5597 5598 5596 5597 5601 5603 5606 5611 5615 5615 5615 5616 5619 5624 5631 5632 5632 5635 5637 5637 5640 5642 5642 5643 5646 5647 5648 5649 5649 5650 5651 5651 5653 5654 5652 5653 5658 5657 5658 5660 5656 5654 5660 5662 5658 5658 5661 5663 5664 5664 5662 5661 5661 5660 5662 5668 5668 5663 5660 5659 5658 5658 5658 5658 5656 5654 5654 5653 5652 5651 5650 5649